Showing default

FOREST-18 MANGOSHRIKHAND, 68999

Orbit data source: Space-Track

FOREST-18 MANGOSHRIKHAND, 68999 is a German payload satellite in SSO that was launched on Sun, 03 May 2026 UTC via an FALCON 9 launch vehicle from the Air Force Western Test Range (AFWTR). Payload-class satellites include a variety of spacecraft equipped with specific instruments for various scientific and technological missions. These include communications satellites like Starlink; space stations such as the ISS; scientific satellites like the Hubble; Earth observation satellites from companies like Planet Labs, Umbra, and HawkEye 360; GPS; miniature CubeSats for education and research; and military/defense satellites.

Loading next visibility...
Identifier
68999, 2026-100V
Orbit
SSO
Country
Flag of DEDE / GER
Related business
Manufacturer
OroraTech
Mission
Operational Commercial Imaging
Bus & Motor
CUBESAT 8U, Unknown motor
Mass
~15 kg wet, ~15 kg dry
Launch date (UTC)
2026-05-03 (5 months ago)
Launch vehicle
FALCON 9
Launch site
Air Force Western Test Range (AFWTR)
Object type
Payload
Rocket body
Debris
Shape & HBR
Box, 0.2 m
Radar Cross Section
0.100 m², Medium (>0.1 m² and < 1m²)

Expand to show TLE details & history
Last TLE update: 17 hours ago

TLE from 17 hours ago
0 FOREST-18 MANGOSHRIKHAND
1 68999U 26100V   26265.80252481  .00000975  00000-0  99409-4 0  9997
2 68999  97.7188 161.4624 0000631 100.7140 259.4150 14.92920408 21266
Epoch: 2026-09-22T19:15Z
TLE epoch observation values (Epoch: 2026-09-22T19:15:38.143Z)
Latitude
-0.00009°
Longitude
-129.10929°
Altitude
591.96 km
Speed
7.564 km/s
True Right ascension
10h 45m 50s
True Declination
0° 00' 00"
Sunlit
Object was in daylight at epoch
Visualization orbit readout
Latitude
Unknown
Longitude
Unknown
Altitude
Unknown
Speed
Unknown
Apparent Right ascension
Unknown
Apparent Declination
Unknown
Sunlit
N/A
Visualization observer readout
Local Sidereal Time
05:23:29
Azimuth
Unknown
Elevation
Unknown
Doppler factor
Unknown
Orbital elements
Apogee altitude
586.29 km
Perigee altitude
585.411 km
Semi-major axis
6,963.988 km
Eccentricity
0.00006
Inclination
97.7188°
RAAN
161.4624°
Arg. of periapsis
100.714°
True anomaly
259.40789°
Mean anomaly
259.415°
Eccentric anomaly
259.41145°
Mean motion
3.7347 °/min
Orbital period
96.39 mins
BSTAR
0.000099409
Loading maneuver chart data...
Computing Atmospheric mass density...
Loading historical data...
Loading historical data...
Loading historical data...
Loading historical data...
Loading historical data...
Loading historical data...
Loading historical data...

Documentation

Showing up to 5 results
|